Location: Battersea Observatory
(44.4318°N, 76.3841°W)
Time: 18:15:37
(UTC-05:00)

Tiangong - Pass Details

Date: 12 December 2021
Orbit: 383 x 386 km, 41.5° (Epoch: 20 January)

Event Time Altitude Azimuth Distance (km) Brightness Sun altitude
Rises 19:12:49 0° 266° (W) 2,275 6.2 -28.8°
Reaches altitude 10° 19:14:56 10° 260° (W) 1,417 4.9 -29.2°
Enters shadow 19:15:29 14° 257° (WSW) 1,202 4.4 -29.3°
